Regional Weather Roundup
Issued by NWS

Home | Current Version | Previous Version | Text Only | Print | Product List | Glossary On
Versions: 1 2 3 4 5 6 7 8 9 10 11 12 13 14 15 16 17 18 19 20 21 22 23 24 25 26 27 28 29 30 31 32 33 34 35 36 37 38 39 40 41 42 43 44 45 46 47 48 49 50
000
ASUS43 KDMX 061506
RWRIA

WEATHER ROUNDUP FOR IOWA
NATIONAL WEATHER SERVICE DES MOINES IA
900 AM CST MON DEC 06 2021

NOTE: "FAIR" INDICATES FEW OR NO CLOUDS BELOW 12,000 FEET WITH NO
SIGNIFICANT WEATHER AND/OR OBSTRUCTIONS TO VISIBILITY.

* - THESE STATIONS ARE NOT NWS STATIONS...THUS NOT UNDER NWS
QUALITY CONTROL.  THEY ALSO DO NOT REPORT WEATHER SUCH
AS PRECIPITATION OR FOG.

IAZ001>003-012>014-020>022-031>034-043>046-061600-
   NORTHWEST IOWA

CITY           SKY/WX    TMP DP  RH WIND       PRES   REMARKS
CARROLL *      CLOUDY    21  12  68 NW25G33   30.27R WCI   4
CHEROKEE *     SUNNY     14   4  66 NW16G25   30.32R WCI  -2
DENISON *      SUNNY     16   9  73 NW22G31   30.32R WCI  -2
LE MARS *      PTSUNNY   12   5  73 NW18G25   30.34R WCI  -5
MAURICE *      PTSUNNY   10   3  72 NW26G32   30.31R WCI -11
SHELDON *      MOSUNNY   10   1  67 NW22G28   30.29R WCI  -9
SIOUX CITY     MOSUNNY   14   2  58 N30G41    30.36R WCI  -7
SPENCER        SUNNY     13   0  56 NW20G31   30.28R WCI  -5
STORM LAKE *   SUNNY     14   3  62 NW23G32   30.28R WCI  -5
$$

IAZ055>058-069>071-079>083-090>094-061600-
   SOUTHWEST IOWA

CITY           SKY/WX    TMP DP  RH WIND       PRES   REMARKS
ATLANTIC *     SUNNY     21  14  73 NW24G32   30.30R WCI   4
AUDUBON *      MOSUNNY   21  12  68 NW15      30.28R WCI   8
CLARINDA *     SUNNY     28  16  59 NW16G26   30.32R WCI  17
COUNCIL BLFS * CLOUDY    21  10  63 NW21      30.32R WCI   6
CRESTON *      CLOUDY    27  19  74 NW23G35   30.24R WCI  12
HARLAN  *      SUNNY     19  10  68 NW24G32   30.31R WCI   2
LAMONI         MOSUNNY   28  16  60 NW18G31   30.24R WCI  15
RED OAK *      CLOUDY    25  16  68 NW17G33   30.32R WCI  11
SHENANDOAH *   PTSUNNY   28  18  64 NW22G32   30.32R WCI  15
$$

IAZ047>049-059>061-072>074-084-061600-
   CENTRAL IOWA

CITY           SKY/WX    TMP DP  RH WIND       PRES   REMARKS
AMES           PTSUNNY   21   9  59 N28G38    30.23R WCI   3
ANKENY *       MIX PCPN  27  16  63 NW24G32   30.24R WCI  12
BOONE *        MOSUNNY   21  10  63 NW17G32   30.24R WCI   7
CHARITON *     CLOUDY    27  16  63 NW22G30   30.22R WCI  12
DES MOINES     FLURRIES  28  16  60 NW17G31   30.23R WCI  16
GRINNELL*      PTSUNNY   29  18  64 NW23G33   30.18R WCI  15
KNOXVILLE *    CLOUDY    28  16  59 NW25G32   30.20R WCI  14
MARSHALLTOWN   SUNNY     19   8  62 NW30G41   30.19R WCI   0
NEWTON *       CLOUDY    27  14  59 NW23G36   30.19R WCI  12
PERRY *        PTSUNNY   23  13  65 NW22G31   30.25R WCI   8
$$

IAZ004>006-015-016-023>025-035-036-061600-
   NORTH CENTRAL IOWA

CITY           SKY/WX    TMP DP  RH WIND       PRES   REMARKS
ALGONA *       SUNNY     10   0  61 NW23G36   30.23R WCI -10
CLARION *      SUNNY     14   5  67 NW30G38   30.23R WCI  -7
ESTHERVILLE    SUNNY     10  -3  55 NW25G39   30.26R WCI -11
FORT DODGE *   PTSUNNY   17   8  67 NW13G21   30.26R WCI   4
MASON CITY     SUNNY     11   0  61 NW32G43   30.19R WCI -12
FOREST CITY *  FAIR      12   1  62 NW22G37   30.19R WCI  -7
WEBSTER CITY * FLURRIES  18   7  62 NW24G38   30.23R WCI   0
IOWA FALLS *   FAIR      17   7  64 NW30G39   30.20R WCI  -3
$$

IAZ007>011-017>019-026>030-037>042-050>054-066-061600-
   NORTHEAST IOWA

CITY           SKY/WX    TMP DP  RH WIND       PRES   REMARKS
CEDAR RAPIDS   SUNNY     21  12  68 NW28G44   30.11R WCI   3
CHARLES CITY * SUNNY     14   3  62 NW25G40   30.13R WCI  -5
CLINTON *      SUNNY     27  19  72 W28G37    30.03R WCI  11
DECORAH *      CLOUDY    14   7  73 NW15G29   30.04R WCI  -1
DUBUQUE        SUNNY     24  15  68 W18G31    29.99R WCI  10
MONTICELLO *   SUNNY     23  14  68 NW26G37   30.05R WCI   6
OELWEIN *      MOSUNNY   16   7  67 NW33      30.08R WCI  -5
WATERLOO       SUNNY     18   6  59 NW23G38   30.14R WCI   0
$$

IAZ064-065-067-068-078-061600-
   EAST CENTRAL IOWA

CITY           SKY/WX    TMP DP  RH WIND       PRES   REMARKS
DAVENPORT      SUNNY     28  16  60 W24G41    30.07R WCI  14
IOWA CITY      SUNNY     27  12  53 NW23G33   30.15R WCI  12
MT. PLEASANT * MOSUNNY   30  19  64 NW20G28   30.17R WCI  18
MUSCATINE *    SUNNY     28  16  59 NW28G38   30.14R WCI  13
QUAD CITIES    SUNNY     30  17  58 W24G35    30.07R WCI  16
$$

IAZ062-063-075>077-085>089-095>099-061600-
   SOUTHEAST IOWA

CITY           SKY/WX    TMP DP  RH WIND       PRES   REMARKS
BURLINGTON     SUNNY     29  16  58 NW20G37   30.15R WCI  16
FAIRFIELD *    MOSUNNY   28  16  59 NW21G29   30.17R WCI  15
FORT MADISON *   N/A     28  18  64 NW21G30   30.17R WCI  15
KEOKUK *       SUNNY     30  18  59 NW20G30   30.18R WCI  18
OSKALOOSA *    PTSUNNY   30  19  61 NW24G35   30.20R WCI  16
CENTERVILLE *  FAIR      28  16  59 W18G24    30.23R WCI  16
OTTUMWA        PTSUNNY   28  17  63 NW25G39   30.18R WCI  13
WASHINGTON *   SUNNY     28  19  69 NW23G36   30.15R WCI  14
$$

ABBREVIATIONS USED IN REMARKS
   TC - TEMPERATURES IN CELSIUS
  WCI - WIND CHILL INDEX
   HX - HEAT INDEX
  VSB - VISIBILITY
$$




USA.gov is the U.S. government's official web portal to all federal, state and local government web resources and services.